Regional Weather Roundup
Issued by NWS Jackson, KY

Home | Current Version | Previous Version | Graphics & Text | Print | Product List | Glossary On
Versions: 1 2 3 4 5 6 7 8 9 10 11 12 13 14 15 16 17 18 19 20 21 22 23 24 25 26 27
000
ASUS43 KJKL 250710
RWRJKL

EAST KENTUCKY HOURLY WEATHER ROUNDUP
NATIONAL WEATHER SERVICE JACKSON KY
300 AM EDT SUN JUN 25 2017

NOTE: "FAIR" INDICATES FEW OR NO CLOUDS BELOW 12,000 FEET WITH
NO SIGNIFICANT WEATHER AND/OR OBSTRUCTIONS TO VISIBILITY.

* THESE REPORTS ARE NOT UNDER NWS QUALITY CONTROL AND MAY NOT
  REPORT WEATHER SUCH AS PRECIPITATION AND FOG.

KYZ079-080-083-085-087-088-110-112-115-119-120-250800
...EASTERN KENTUCKY...

CITY           SKY/WX    TMP DP  RH WIND       PRES   REMARKS
JACKSON        CLOUDY    65  56  72 NW6       30.14R
LONDON         PTCLDY    61  58  90 CALM      30.15S
SOMERSET*      PTCLDY    59  59 100 CALM      30.17R
MONTICELLO*    CLOUDY    61  60  97 NW9       30.18S
WILLIAMSBURG*  PTSUNNY   59  59 100 CALM      30.16S
MIDDLESBORO*   PTCLDY    60  60 100 CALM      30.15S
HARLAN APT*    PTSUNNY   61  59  94 CALM      30.16S
PIKE CO APT*   MOCLDY    64  61  90 CALM      30.14R
BIG SANDY APT* PTSUNNY   66  59  77 W3        30.13R
MOREHEAD APT*  MOSUNNY   63  55  77 NW3       30.14S
$$

KYZ035-036-041-042-044-050-067-078-099-250800
...CENTRAL KENTUCKY...

CITY           SKY/WX    TMP DP  RH WIND       PRES   REMARKS
MT STERLING*   CLEAR     59  55  88 NW5       30.15S
FLEMING/MASON* CLEAR     60  57  89 W3        30.13S
DANVILLE*      PTCLDY    63  52  67 NW5       30.16S
LEXINGTON      PTCLDY    61  53  75 W3        30.14S
FRANKFORT      CLEAR     61  53  75 NW3       30.12S
LOUISVILLE     CLEAR     64  54  69 NW7       30.13S
LEBANON*         N/A    N/A N/A N/A MISG        N/A
GLASGOW*       CLEAR     58  58 100 CALM      30.16S
BOWLING GREEN  CLEAR     63  56  78 S3        30.17R
$$

KYZ091>093-OHZ055-061-077-WVZ005-015-034-035-042-250800
...SOUTHERN OHIO/WEST VIRGINIA...

CITY           SKY/WX    TMP DP  RH WIND       PRES   REMARKS
COVINGTON      PTCLDY    59  51  75 W6        30.11S
COLUMBUS       CLEAR     62  52  69 W9        30.06S
DAYTON         CLEAR     59  47  64 W9        30.09F
WILMINGTON     CLEAR     60  50  69 W6        30.09F
HUNTINGTON     CLEAR     66  56  70 NW6       30.10R
CHARLESTON     MOCLDY    63  60  90 SW3       30.09R
PINEVILLE*     MOCLDY    60  59  97 MISG      30.18S
BECKLEY        PTCLDY    60  56  86 CALM      30.14F
BLUEFIELD      MOCLDY    60  56  86 W5        30.17S
LOGAN CO APT*    N/A     63  61  94 CALM      30.12S
$$

VAZ002-007-008-TNZ017-027-036-066-071-250800
...SOUTHWEST VIRGINIA/EAST TENNESSEE...

CITY           SKY/WX    TMP DP  RH WIND       PRES   REMARKS
WISE*          PTCLDY    63  54  72 CALM      30.19S
JONESVILLE*      N/A     61  59  94 CALM      30.16S
ABINGDON*      MOCLDY    65  61  87 CALM      30.15S
BRISTOL        PTCLDY    63  62  97 CALM      30.13S
MORRISTOWN*    CLOUDY    64  61  88 SW3       30.13S
SEVIERVILLE*   PTSUNNY   64  61  88 CALM      30.12F
KNOXVILLE      CLOUDY    69  59  70 N3        30.12F
LAFOLLETTE*      N/A     63  59  88 CALM      30.18R
OAK RIDGE      CLEAR     64  60  87 CALM      30.14S
CROSSVILLE     CLEAR     61  57  87 CALM      30.18S
NASHVILLE      MOCLDY    65  57  75 CALM      30.17S
$$

...KEY TO REMARKS...
VSB - VISIBILITY IN MILES
WCI - WIND CHILL INDEX
HX  - HEAT INDEX

$$




USA.gov is the U.S. government's official web portal to all federal, state and local government web resources and services.